Parsons Landing, Santa Catalina Island Weather observations

Data are for 10 minute period ending at time listed.
 Day   Time   Solar   Ave.   Ave.  Ave.  Vector    Max.   Stn.   Total 
  of    of     Rad.   Air    Rel.  Wind   Wind     Wind   Baro. Precip. 
Year   Day            Temp.  Hum.  Speed  Dir.     Gust   Pres.         
2014   (PST)   W/m2    F      %     mph   deg.      mph    mb.    in.   
------------------------------------------------------------------------
 296   15:50  198.0    73   68.6     3    344.5     4.8    999.0   0.00  
 296   16:00  171.0    74   66.5     3    345.0     3.6    999.0   0.00  
 296   16:10  146.0    73   65.6     4    342.4     4.8    999.0   0.00  
 296   16:20   53.0    72   67.1     2    344.4     4.2    999.0   0.00  
 296   16:30   16.0    70   65.1     1    152.4     2.4    999.0   0.00  
 296   16:40   13.0    70   64.7     2     40.4     2.4    999.0   0.00  
 296   16:50   13.0    69   64.0     2    155.4     3.0    999.0   0.00  
 296   17:00    9.0    69   64.6     2     29.6     3.6    999.0   0.00  
 296   17:10    6.0    69   69.2     2    322.3     4.2    999.0   0.00  
 296   17:20    3.0    67   66.4     3    152.1     3.6    999.0   0.00  
 296   17:30    0.0    68   63.8     2     43.3     3.0    999.0   0.00  
 296   17:40    0.0    69   67.8     2    337.3     3.0    999.0   0.00  
 296   17:50    0.0    68   65.5     2    169.0     3.6    999.0   0.00  
 296   18:00    0.0    67   62.6     2    141.4     3.0    999.0   0.00  
 296   18:10    0.0    68   64.2     1    299.8     2.4    999.0   0.00  
 296   18:20    0.0    66   62.4     2    121.3     3.0    999.0   0.00  
 296   18:30    0.0    67   61.7     2    127.9     2.4    999.0   0.00  
 296   18:40    0.0    66   63.4     3    152.4     4.2    999.0   0.00  
 296   18:50    0.0    66   63.9     4    153.2     4.2    999.0   0.00  
 296   19:00    0.0    67   63.8     2    134.4     3.0    999.0   0.00  
 296   19:10    0.0    67   63.3     2    141.9     2.4    999.0   0.00  
 296   19:20    0.0    67   64.3     2    154.3     3.0    999.0   0.00  
 296   19:30    0.0    66   62.5     3    148.1     4.2    999.0   0.00  
 296   19:40    0.0    66   61.2     3    152.5     4.2    999.0   0.00  
 296   19:50    0.0    66   61.9     2    136.0     2.4    999.0   0.00  
 296   20:00    0.0    66   61.8     3    135.1     3.6    999.0   0.00  
 296   20:10    0.0    66   61.7     3    128.0     3.6    999.0   0.00  
 296   20:20    0.0    67   63.0     2    206.0     2.4    999.0   0.00  
 296   20:30    0.0    67   58.2     2    220.6     1.8    999.0   0.00  
 296   20:40    0.0    66   60.1     2    168.1     3.6    999.0   0.00  
 296   20:50    0.0    66   61.1     2    156.0     3.0    999.0   0.00  
 296   21:00    0.0    67   62.5     1    181.4     1.8    999.0   0.00  
 296   21:10    0.0    68   59.7     2    235.5     3.0    999.0   0.00  
 296   21:20    0.0    68   55.5     2    252.7     3.0    999.0   0.00  
 296   21:30    0.0    67   59.1     2    237.7     2.4    999.0   0.00  
 296   21:40    0.0    67   60.0     2    239.0     3.0    999.0   0.00  
 296   21:50    0.0    66   63.0     1    167.1     1.8    999.0   0.00  
 296   22:00    0.0    66   72.0     2    215.0     3.0    999.0   0.00  
 296   22:10    0.0    66   74.2     1    238.4     2.4    999.0   0.00  
 296   22:20    0.0    66   73.2     2    247.8     2.4    999.0   0.00  
 296   22:30    0.0    66   70.6     2    245.8     2.4    999.0   0.00  
 296   22:40    0.0    67   67.7     2    271.1     2.4    999.0   0.00  
 296   22:50    0.0    67   72.7     1    334.8     1.8    999.0   0.00  
 296   23:00    0.0    65   73.1     1    152.2     3.0    999.0   0.00  
 296   23:10    0.0    64   73.9     2    167.3     3.0    999.0   0.00  
 296   23:20    0.0    64   71.8     2    149.5     3.6    999.0   0.00  
 296   23:30    0.0    64   64.9     4    155.8     4.2    999.0   0.00  
 296   23:40    0.0    65   61.0     4    153.6     4.2    999.0   0.00  
 296   23:50    0.0    66   59.2     3    123.8     4.2    999.0   0.00  
 297    0:00    0.0    66   57.1     3    133.1     4.2    999.0   0.00  
 297    0:10    0.0    64   64.0     3    149.6     4.2    999.0   0.00  
 297    0:20    0.0    64   68.8     3    147.4     4.2    999.0   0.00  
 297    0:30    0.0    64   66.1     3    146.7     4.2    999.0   0.00  
 297    0:40    0.0    65   64.4     4    123.4     6.0    999.0   0.00  
 297    0:50    0.0    65   67.9     3    123.2     4.8    999.0   0.00  
 297    1:00    0.0    65   68.1     3    121.1     5.4    999.0   0.00  
 297    1:10    0.0    65   64.5     2    206.3     4.2    999.0   0.00  
 297    1:20    0.0    66   68.9     1    211.4     3.0    999.0   0.00  
 297    1:30    0.0    64   71.1     2    164.7     4.2    999.0   0.00  
 297    1:40    0.0    64   70.3     3    141.1     4.2    999.0   0.00  
 297    1:50    0.0    65   66.0     3    131.8     3.6    999.0   0.00  
 297    2:00    0.0    64   58.8     3    141.4     3.6    999.0   0.00  
 297    2:10    0.0    65   55.0     3    126.9     3.6    999.0   0.00  
 297    2:20    0.0    65   60.4     2    143.7     3.6    999.0   0.00  
 297    2:30    0.0    66   61.8     2    138.8     3.0    999.0   0.00  
 297    2:40    0.0    65   62.6     2    128.7     3.0    999.0   0.00  
 297    2:50    0.0    65   58.0     2    107.4     4.2    999.0   0.00  
 297    3:00    0.0    66   54.7     3    116.9     4.2    999.0   0.00  
 297    3:10    0.0    64   53.9     4    140.3     4.8    999.0   0.00  
 297    3:20    0.0    65   63.6     4    116.1     5.4    999.0   0.00  
 297    3:30    0.0    64   63.7     4    133.2     5.4    999.0   0.00  
 297    3:40    0.0    64   64.8     4    116.1     6.0    999.0   0.00  
 297    3:50    0.0    64   56.4     4    118.2     5.4    999.0   0.00  
 297    4:00    0.0    65   57.3     3    126.0     4.2    999.0   0.00  
 297    4:10    0.0    66   52.9     2    103.2     3.0    999.0   0.00  
 297    4:20    0.0    67   59.3     1     10.3     2.4    999.0   0.00  
 297    4:30    0.0    65   59.9     1    219.0     1.8    999.0   0.00  
 297    4:40    0.0    65   52.6     1    137.9     2.4    999.0   0.00  
 297    4:50    0.0    65   51.8     2    150.6     3.0    999.0   0.00  
 297    5:00    0.0    66   49.2     2    145.8     3.0    999.0   0.00  
 297    5:10    0.0    66   49.4     1    172.7     1.8    999.0   0.00  
 297    5:20    0.0    65   52.3     2    154.8     2.4    999.0   0.00  
 297    5:30    0.0    66   53.7     2    132.3     2.4    999.0   0.00  
 297    5:40    0.0    66   59.8     2    149.2     3.0    999.0   0.00  
 297    5:50    0.0    65   58.4     1    209.1     1.8    999.0   0.00  
 297    6:00    0.0    66   56.6     1    289.5     1.8    999.0   0.00  
 297    6:10    3.0    65   53.3     1    298.9     1.2    999.0   0.00  
 297    6:20    7.0    65   53.5     1    224.0     1.8    999.0   0.00  
 297    6:30   23.0    66   53.8     2    224.2     2.4    999.0   0.00  
 297    6:40   44.0    67   57.9     2    223.5     3.0    999.0   0.00  
 297    6:50   73.0    67   65.4     2    226.8     3.0    999.0   0.00  
 297    7:00  102.0    68   68.3     1    215.5     2.4    999.0   0.00  
 297    7:10  126.0    69   68.7     2    200.7     2.4    999.0   0.00  
 297    7:20  152.0    70   68.4     1    199.4     1.8    999.0   0.00  
 297    7:30  178.0    72   62.7     2    152.0     3.0    999.0   0.00  
 297    7:40  205.0    73   55.8     2     72.1     4.2    999.0   0.00  
 297    7:50  231.0    73   59.4     2     25.1     3.6    999.0   0.00  
 297    8:00  257.0    74   61.2     3     86.3     4.2    999.0   0.00  
 297    8:10  283.0    74   58.0     4     81.8     6.0    999.0   0.00  
 297    8:20  308.0    74   58.8     4     78.0     6.0    999.0   0.00  
 297    8:30  332.0    73   66.6     5     54.6     7.2    999.0   0.00  
 297    8:40  355.0    73   68.5     5     39.0     6.6    999.0   0.00  
 297    8:50  377.0    73   69.5     5     32.3     7.2    999.0   0.00  
 297    9:00  397.0    74   69.4     3      6.0     6.0    999.0   0.00  
 297    9:10  418.0    74   70.6     4    321.4     5.4    999.0   0.00  
 297    9:20  437.0    73   72.9     4    338.0     6.0    999.0   0.00  
 297    9:30  454.0    73   75.0     4    334.2     6.0    999.0   0.00  
 297    9:40  473.0    73   74.0     4    343.5     6.0    999.0   0.00  
 297    9:50  489.0    73   73.5     4    336.3     6.6    999.0   0.00  
 297   10:00  505.0    73   72.8     4    337.9     7.2    999.0   0.00  
 297   10:10  518.0    72   73.2     4    332.5     6.0    999.0   0.00  
 297   10:20  530.0    72   74.8     4    333.5     6.0    999.0   0.00  
 297   10:30  542.0    73   74.9     4    341.3     6.6    999.0   0.00  
 297   10:40  553.0    73   75.2     4    338.5     6.0    999.0   0.00  
 297   10:50  561.0    73   75.4     4    345.3     6.6    999.0   0.00  
 297   11:00  568.0    73   75.1     5    333.4     6.6    999.0   0.00  
 297   11:10  572.0    73   75.3     5    332.4     7.2    999.0   0.00  
 297   11:20  578.0    73   74.9     5    335.2     7.2    999.0   0.00  
 297   11:30  580.0    74   73.7     4    339.0     6.0    999.0   0.00  
 297   11:40  582.0    75   70.5     6    339.4     9.0    999.0   0.00  
 297   11:50  581.0    75   68.7     4    334.7     7.2    999.0   0.00  
 297   12:00  580.0    75   66.4     4    320.9     6.6    999.0   0.00  
 297   12:10  577.0    76   66.2     5    336.3     7.2    999.0   0.00  
 297   12:20  571.0    75   67.2     5    335.6     6.6    999.0   0.00  
 297   12:30  563.0    75   68.1     5    340.2     7.2    999.0   0.00  
 297   12:40  557.0    75   68.3     5    336.0     7.8    999.0   0.00  
 297   12:50  549.0    74   69.1     4    340.3     6.6    999.0   0.00  
 297   13:00  538.0    75   68.6     4    351.9     6.6    999.0   0.00  
 297   13:10  527.0    75   68.1     4    358.1     6.6    999.0   0.00  
 297   13:20  514.0    76   69.9     4    356.2     7.8    999.0   0.00  
 297   13:30  501.0    75   71.2     4    343.3     6.6    999.0   0.00  
 297   13:40  486.0    76   69.6     4    338.8     6.0    999.0   0.00  
 297   13:50  470.0    76   67.1     4    344.1     6.0    999.0   0.00  
 297   14:00  452.0    77   65.1     4    353.3     7.2    999.0   0.00  
 297   14:10  434.0    78   61.8     4    343.0     6.0    999.0   0.00  
 297   14:20  412.0    78   61.0     4    354.4     6.0    999.0   0.00  
 297   14:30  388.0    77   65.2     4     43.3     6.6    999.0   0.00  
 297   14:40  365.0    77   64.1     4     75.6     6.6    999.0   0.00  
 297   14:50  341.0    76   65.4     5     50.3     6.6    999.0   0.00  
 297   15:00  315.0    76   65.8     4     60.7     5.4    999.0   0.00  
 297   15:10  291.0    76   65.9     3     80.2     4.8    999.0   0.00  
 297   15:20  266.0    76   65.3     3     30.8     4.8    999.0   0.00  
 297   15:30  241.0    77   63.9     3    352.3     4.8    999.0   0.00  
 297   15:40  215.0    76   67.3     4     51.6     5.4    999.0   0.00  

Return to Parsons Landing graphs page.


Western Regional Climate Center,wrcc@dri.edu